When you browse on this site, cookies collect data to enhance your experience and personalize the content and advertising you see.
Visit our Privacy Policy to learn more. By continuing to use the site, you agree to this use of cookies and data.
  • în România
  • Lista ţărilor
  • Pe 7 zile
  • Temperatura apei
  • Hartă satelitară
  • Meteo pe hartă
  • Widget-uri
  • user-avatar
    Intrare

    Meteo pe oră la Ajuchitlan

    Astăzi, 18 Aprilie, Joi

    Timp Temperatura Precipitaţii Vânt Presiune Umiditate
    00:00 +30°C° 0 mm 1 m/s 728 mmHg 33%
    01:00 +30°C° 0 mm 1 m/s 728 mmHg 33%
    02:00 +29°C° 0 mm 1 m/s 728 mmHg 33%
    03:00 +28°C° 0 mm 1 m/s 728 mmHg 34%
    04:00 +28°C° 0 mm 1 m/s 728 mmHg 34%
    05:00 +27°C° 0 mm 1 m/s 728 mmHg 34%
    06:00 +28°C° 0 mm 0 m/s 728 mmHg 30%
    07:00 +31°C° 0 mm 0 m/s 729 mmHg 27%
    08:00 +33°C° 0 mm 0 m/s 729 mmHg 23%
    09:00 +37°C° 0 mm 1 m/s 728 mmHg 20%
    10:00 +40°C° 0 mm 1 m/s 728 mmHg 16%
    11:00 +42°C° 0 mm 1 m/s 728 mmHg 13%
    12:00 +43°C° 0 mm 2 m/s 727 mmHg 12%
    13:00 +45°C° 0 mm 2 m/s 726 mmHg 11%
    14:00 +45°C° 0 mm 2 m/s 725 mmHg 10%
    15:00 +45°C° 0 mm 2 m/s 725 mmHg 10%
    16:00 +43°C° 0 mm 2 m/s 725 mmHg 10%
    17:00 +42°C° 0 mm 1 m/s 724 mmHg 10%
    18:00 +40°C° 0 mm 1 m/s 725 mmHg 14%
    19:00 +36°C° 0 mm 1 m/s 725 mmHg 18%
    20:00 +34°C° 0 mm 1 m/s 726 mmHg 21%
    21:00 +33°C° 0 mm 1 m/s 726 mmHg 25%
    22:00 +32°C° 0 mm 1 m/s 727 mmHg 28%
    23:00 +31°C° 0 mm 1 m/s 727 mmHg 31%

    Mâine, 19 Aprilie, Vineri

    Timp Temperatura Precipitaţii Vânt Presiune Umiditate
    00:00 +30°C° 0 mm 1 m/s 727 mmHg 32%
    01:00 +30°C° 0 mm 1 m/s 727 mmHg 34%
    02:00 +29°C° 0 mm 1 m/s 727 mmHg 35%
    03:00 +28°C° 0 mm 1 m/s 727 mmHg 36%
    04:00 +28°C° 0 mm 1 m/s 727 mmHg 37%
    05:00 +27°C° 0 mm 1 m/s 727 mmHg 37%
    06:00 +30°C° 0 mm 1 m/s 728 mmHg 34%
    07:00 +32°C° 0 mm 1 m/s 729 mmHg 31%
    08:00 +34°C° 0 mm 1 m/s 730 mmHg 27%
    09:00 +36°C° 0 mm 1 m/s 729 mmHg 25%
    10:00 +39°C° 0 mm 2 m/s 729 mmHg 22%
    11:00 +42°C° 0 mm 2 m/s 729 mmHg 19%
    12:00 +43°C° 0 mm 2 m/s 729 mmHg 18%
    13:00 +43°C° 0 mm 2 m/s 728 mmHg 17%
    14:00 +44°C° 0 mm 1 m/s 727 mmHg 15%
    15:00 +43°C° 0 mm 1 m/s 727 mmHg 16%
    16:00 +42°C° 0 mm 1 m/s 727 mmHg 17%
    17:00 +41°C° 0 mm 1 m/s 726 mmHg 18%
    18:00 +39°C° 0 mm 1 m/s 727 mmHg 24%
    19:00 +36°C° 0 mm 1 m/s 728 mmHg 30%
    20:00 +34°C° 0 mm 1 m/s 728 mmHg 36%
    21:00 +33°C° 0 mm 1 m/s 729 mmHg 39%
    22:00 +33°C° 0 mm 1 m/s 730 mmHg 42%
    23:00 +32°C° 0 mm 1 m/s 730 mmHg 45%

    Poimâine, 20 Aprilie, Sâmbătă

    Timp Temperatura Precipitaţii Vânt Presiune Umiditate
    00:00 +31°C° 0 mm 1 m/s 730 mmHg 46%
    01:00 +30°C° 0 mm 1 m/s 730 mmHg 48%
    02:00 +30°C° 0 mm 1 m/s 730 mmHg 49%
    03:00 +27°C° 0 mm 0 m/s 730 mmHg 50%
    04:00 +26°C° 0 mm 0 m/s 730 mmHg 50%
    05:00 +26°C° 0 mm 0 m/s 730 mmHg 50%
    06:00 +28°C° 0 mm 0 m/s 730 mmHg 43%
    07:00 +30°C° 0 mm 0 m/s 731 mmHg 36%
    08:00 +34°C° 0 mm 1 m/s 731 mmHg 29%
    09:00 +37°C° 0 mm 1 m/s 731 mmHg 23%
    10:00 +41°C° 0 mm 1 m/s 731 mmHg 18%
    11:00 +43°C° 0 mm 1 m/s 731 mmHg 12%
    12:00 +44°C° 0 mm 1 m/s 730 mmHg 12%
    13:00 +45°C° 0 mm 1 m/s 729 mmHg 12%
    14:00 +45°C° 0 mm 1 m/s 728 mmHg 11%
    15:00 +44°C° 0 mm 1 m/s 728 mmHg 13%
    16:00 +42°C° 0 mm 2 m/s 727 mmHg 15%
    17:00 +41°C° 0 mm 2 m/s 727 mmHg 17%
    18:00 +39°C° 0 mm 2 m/s 728 mmHg 23%
    19:00 +37°C° 0 mm 2 m/s 729 mmHg 29%
    20:00 +34°C° 0 mm 1 m/s 729 mmHg 35%
    21:00 +33°C° 0 mm 1 m/s 730 mmHg 37%
    22:00 +33°C° 0 mm 1 m/s 730 mmHg 39%
    23:00 +32°C° 0 mm 1 m/s 731 mmHg 41%

    21 Aprilie, Duminică

    Timp Temperatura Precipitaţii Vânt Presiune Umiditate
    00:00 +31°C° 0 mm 1 m/s 730 mmHg 41%
    01:00 +31°C° 0 mm 1 m/s 730 mmHg 41%
    02:00 +30°C° 0 mm 1 m/s 730 mmHg 41%
    03:00 +30°C° 0 mm 1 m/s 730 mmHg 41%
    04:00 +29°C° 0 mm 1 m/s 730 mmHg 41%
    05:00 +29°C° 0 mm 1 m/s 730 mmHg 41%
    06:00 +31°C° 0 mm 1 m/s 731 mmHg 36%
    07:00 +33°C° 0 mm 1 m/s 732 mmHg 32%
    08:00 +36°C° 0 mm 1 m/s 732 mmHg 27%
    09:00 +37°C° 0 mm 1 m/s 732 mmHg 24%
    10:00 +40°C° 0 mm 1 m/s 731 mmHg 21%
    11:00 +42°C° 0 mm 1 m/s 731 mmHg 18%
    12:00 +43°C° 0 mm 2 m/s 730 mmHg 17%
    13:00 +43°C° 0 mm 2 m/s 729 mmHg 16%
    14:00 +45°C° 0 mm 2 m/s 728 mmHg 14%
    15:00 +43°C° 0 mm 2 m/s 728 mmHg 15%
    16:00 +42°C° 0 mm 2 m/s 728 mmHg 15%
    17:00 +42°C° 0 mm 2 m/s 728 mmHg 15%
    18:00 +39°C° 0 mm 1 m/s 728 mmHg 19%
    19:00 +36°C° 0 mm 1 m/s 729 mmHg 23%
    20:00 +34°C° 0 mm 1 m/s 730 mmHg 26%
    21:00 +33°C° 0 mm 1 m/s 730 mmHg 28%
    22:00 +32°C° 0 mm 1 m/s 730 mmHg 30%
    23:00 +32°C° 0 mm 1 m/s 730 mmHg 32%

    22 Aprilie, Luni

    Timp Temperatura Precipitaţii Vânt Presiune Umiditate
    00:00 +31°C° 0 mm 1 m/s 730 mmHg 32%
    01:00 +31°C° 0 mm 1 m/s 729 mmHg 32%
    02:00 +30°C° 0 mm 1 m/s 729 mmHg 32%
    03:00 +30°C° 0 mm 1 m/s 729 mmHg 32%
    04:00 +29°C° 0 mm 1 m/s 729 mmHg 32%
    05:00 +26°C° 0 mm 0 m/s 729 mmHg 32%
    06:00 +29°C° 0 mm 0 m/s 730 mmHg 29%
    07:00 +31°C° 0 mm 0 m/s 730 mmHg 25%
    08:00 +36°C° 0 mm 1 m/s 731 mmHg 22%
    09:00 +39°C° 0 mm 1 m/s 730 mmHg 19%
    10:00 +41°C° 0 mm 1 m/s 730 mmHg 16%
    11:00 +43°C° 0 mm 1 m/s 729 mmHg 13%
    12:00 +44°C° 0 mm 1 m/s 729 mmHg 12%
    13:00 +45°C° 0 mm 1 m/s 728 mmHg 12%
    14:00 +46°C° 0 mm 2 m/s 727 mmHg 11%
    15:00 +45°C° 0 mm 1 m/s 727 mmHg 11%
    16:00 +44°C° 0 mm 1 m/s 727 mmHg 12%
    17:00 +43°C° 0 mm 1 m/s 727 mmHg 12%
    18:00 +40°C° 0 mm 1 m/s 727 mmHg 19%
    19:00 +38°C° 0 mm 2 m/s 728 mmHg 26%
    20:00 +35°C° 0 mm 2 m/s 728 mmHg 33%
    21:00 +34°C° 0 mm 2 m/s 728 mmHg 36%
    22:00 +33°C° 0 mm 1 m/s 729 mmHg 38%
    23:00 +32°C° 0 mm 1 m/s 729 mmHg 40%

    23 Aprilie, Marţi

    Timp Temperatura Precipitaţii Vânt Presiune Umiditate
    00:00 +31°C° 0 mm 1 m/s 729 mmHg 41%
    01:00 +31°C° 0 mm 1 m/s 728 mmHg 42%
    02:00 +30°C° 0 mm 1 m/s 728 mmHg 43%
    03:00 +30°C° 0 mm 1 m/s 728 mmHg 43%
    04:00 +27°C° 0 mm 0 m/s 729 mmHg 44%
    05:00 +27°C° 0 mm 0 m/s 729 mmHg 45%
    06:00 +29°C° 0 mm 0 m/s 729 mmHg 41%
    07:00 +31°C° 0 mm 0 m/s 730 mmHg 37%
    08:00 +35°C° 0 mm 1 m/s 730 mmHg 33%
    09:00 +37°C° 0 mm 1 m/s 730 mmHg 28%
    10:00 +41°C° 0 mm 1 m/s 729 mmHg 24%
    11:00 +43°C° 0 mm 1 m/s 729 mmHg 19%
    12:00 +44°C° 0 mm 1 m/s 728 mmHg 17%
    13:00 +45°C° 0 mm 1 m/s 727 mmHg 15%
    14:00 +46°C° 0 mm 2 m/s 727 mmHg 13%
    15:00 +45°C° 0 mm 1 m/s 726 mmHg 13%
    16:00 +44°C° 0 mm 1 m/s 726 mmHg 14%
    17:00 +43°C° 0 mm 1 m/s 726 mmHg 14%
    18:00 +41°C° 0 mm 1 m/s 727 mmHg 20%
    19:00 +37°C° 0 mm 1 m/s 727 mmHg 26%
    20:00 +35°C° 0 mm 1 m/s 728 mmHg 32%
    21:00 +34°C° 0 mm 1 m/s 728 mmHg 35%
    22:00 +33°C° 0 mm 1 m/s 728 mmHg 37%
    23:00 +32°C° 0 mm 1 m/s 729 mmHg 40%
    Arată mai mult